Skip Page Navigation
NASA JPL Caltech
NASA Logo - Jet Propulsion Laboratory + View the NASA Portal
+ Near-Earth Object (NEO) Program
Search JPL
JPL Home Earth Solar System Stars & Galaxies Technology
JPL Solar System Dynamics
BODIES ORBITS EPHEMERIDES TOOLS PHYSICAL DATA DISCOVERY FAQ SITE MAP
JPL Small-Body Database Browser
Search: [ help ]  
15842 (1995 SX2)
Classification: Main-belt Asteroid          SPK-ID: 2015842
Ephemeris | Orbit Diagram | Orbital Elements | Physical Parameters | Discovery Circumstances | Close-Approach Data ]

[ show orbit diagram ]
Orbital Elements at Epoch 2457000.5 (2014-Dec-09.0) TDB
Reference: JPL 13 (heliocentric ecliptic J2000)
 Element Value Uncertainty (1-sigma)   Units 
e .1917728664540583 5.1547e-08  
a 2.423940587318411 1.3955e-08 AU
q 1.959094552774026 1.2334e-07 AU
i 3.506144536596774 6.5969e-06 deg
node 42.03877946231407 8.1314e-05 deg
peri 280.1702055361723 8.3143e-05 deg
M 56.07730738135375 1.7156e-05 deg
tp 2456785.783195850876
(2014-May-08.28319585)
6.5642e-05 JED
period 1378.419419606211
3.77
1.1904e-05
3.259e-08
d
yr
n .2611686942881619 2.2554e-09 deg/d
Q 2.888786621862796 1.6632e-08 AU
  Orbit Determination Parameters
   # obs. used (total)      1215  
   data-arc span      7653 days (20.95 yr)  
   first obs. used      1994-04-02  
   last obs. used      2015-03-16  
   planetary ephem.      DE431  
   SB-pert. ephem.      SB431-BIG16  
   condition code      0  
   fit RMS      .52709  
   data source      ORB  
   producer      Otto Matic  
   solution date      2015-Apr-07 16:53:43  

Additional Information
 Earth MOID = .951183 AU 
 T_jup = 3.484 
[ show covariance matrix ]

Ephemeris | Orbit Diagram | Orbital Elements | Physical Parameters | Discovery Circumstances | Close-Approach Data ]

Physical Parameter Table
Parameter Symbol Value Units Sigma Reference Notes
absolute magnitude H 14.2 mag n/a MPO319282  

15842 (1995 SX2)          Discovered 1995-Sep-20 by Ueda, S., Kaneda, H. at Kushiro
Reference: 20000726/Numbers.arcLast Updated: 2004-04-19

[ show close-approach data ]
Alternate Designations
 1995 SX2 = 1998 DG14 
Ephemeris | Orbit Diagram | Orbital Elements | Physical Parameters | Discovery Circumstances | Close-Approach Data ]
ABOUT SSD CREDITS/AWARDS PRIVACY/COPYRIGHT GLOSSARY LINKS
FirstGov 2015-May-27 13:54 UT
(server date/time)  
NASA Home Page
Site Manager:   Ryan S. Park
Webmaster  Alan B. Chamberlin